Temperature
16 16 16 16 16 16 16 16 16 15 15 15 16 16 16 16 16 16 16 17 17 17 17 17 16 16 16 16 16 16 15 15 15 15 15 15 15 15 15 15 15 14 14
17 16 16 16 16 16 16 16 15 16 15 15 15 16 15 16 16 16 16 17 17 17 17 17 17 17 16 16 16 16 16 16 16 16 15 15 15 15 15 15 15 14 14
16 16 16 16 16 16 16 15 16 16 16 16 16 16 16 16 16 16 17 17 17 17 17 17 17 17 17 17 16 16 16 16 16 16 16 16 15 15 15 15 15 15 15
16 16 16 16 16 16 16 16 16 16 16 16 16 16 16 16 16 16 17 17 17 17 17 17 17 17 17 17 17 17 16 16 16 16 16 16 16 16 15 15 15 15 15
16 16 16 16 16 16 16 16 16 16 16 16 16 16 16 16 16 17 17 17 17 18 17 17 17 17 17 17 17 17 16 16 16 16 16 16 16 15 15 15 15 15 15
16 16 15 15 15 16 16 15 16 16 16 16 16 16 16 16 17 17 17 17 18 18 17 17 17 17 17 17 17 17 16 16 16 16 16 16 15 15 15 15 15 15 15
15 15 15 15 15 15 15 15 16 16 16 16 16 16 16 17 17 17 17 17 18 18 17 17 17 17 17 17 17 16 16 16 16 16 16 15 15 15 15 15 15 15 15
15 15 15 15 15 15 15 15 15 16 16 16 16 16 17 17 17 17 17 18 18 17 17 17 17 17 17 17 16 16 16 16 16 16 15 15 15 15 15 15 14 14 14
15 15 15 15 15 15 15 15 15 16 16 16 16 17 17 17 17 17 18 18 17 17 17 17 17 17 17 17 16 16 16 16 15 15 15 15 15 15 14 14 14 14 14
15 15 15 15 15 15 15 15 15 15 16 16 17 17 17 17 17 17 18 17 17 17 17 17 17 17 16 16 16 16 16 15 15 15 15 15 15 14 14 14 14 14 14
15 15 15 15 15 15 15 15 15 15 16 16 16 17 17 17 17 17 17 17 17 17 17 17 17 16 16 16 16 16 15 15 15 15 15 14 14 14 14 14 13 13 13
15 15 15 15 15 15 15 15 15 15 15 16 16 17 17 17 17 17 17 17 17 17 17 16 16 16 16 16 16 15 15 15 15 14 14 14 14 14 13 13 13 13 13
15 15 15 15 15 15 15 15 15 15 15 16 16 16 17 17 17 17 17 17 17 17 17 16 16 16 16 15 15 15 15 15 14 14 14 14 14 13 13 13 13 13 13
16 15 15 15 15 15 15 15 15 15 15 16 16 16 17 17 17 17 17 17 17 17 16 16 16 16 15 15 15 15 15 14 14 14 14 14 13 13 13 13 12 12 12
16 16 16 15 15 15 15 15 15 16 16 16 16 16 16 17 17 17 17 16 16 16 16 16 16 15 15 15 15 14 14 14 14 14 14 14 13 13 13 12 12 12 12
16 16 16 16 16 16 16 16 16 16 16 16 16 16 16 16 16 16 16 16 16 16 15 15 15 15 15 15 14 14 14 14 14 14 14 13 13 13 13 12 12 12 12
16 16 16 16 16 16 16 16 16 16 16 16 16 16 16 16 16 16 16 16 15 15 15 15 15 14 14 14 14 14 14 14 14 14 14 13 13 13 13 12 12 12 12
16 15 16 16 16 16 16 16 16 16 16 16 16 16 16 16 15 15 15 15 15 15 14 14 14 14 14 14 14 14 13 13 14 14 14 13 13 13 13 13 12 12 12
15 15 16 16 16 16 16 16 16 16 16 16 15 15 15 15 15 15 15 14 14 14 14 14 14 14 14 13 13 13 13 13 14 14 14 14 13 13 13 13 12 12 11
15 15 15 15 16 16 16 15 15 15 15 15 15 15 15 15 14 14 14 14 14 14 14 13 13 13 13 13 13 13 13 14 14 14 14 13 13 13 13 12 12 11 11
14 15 15 15 15 15 15 15 15 15 15 15 15 15 15 14 14 14 14 14 13 13 13 13 13 13 13 13 13 13 14 14 14 14 13 13 13 12 12 12 11 11 11
14 14 14 15 15 15 15 15 15 15 15 15 15 15 15 14 14 14 14 14 13 13 13 13 13 13 13 13 13 12 13 13 13 13 12 12 12 12 12 11 11 11 10
14 14 14 14 14 14 14 14 15 14 14 14 14 14 14 14 14 14 14 14 13 13 13 13 13 13 13 13 12 12 12 12 11 11 11 11 11 11 11 10 10 10 10
15 15 14 14 14 14 14 14 14 14 14 15 15 15 15 14 14 14 14 14 13 13 13 13 13 13 13 13 12 12 11 11 10 10 10 10 10 10 10 10 10 9 9
15 15 15 15 15 14 14 14 14 14 14 14 14 14 14 14 14 14 14 14 13 13 13 13 13 13 13 12 12 12 11 11 10 9 9 10 9 9 9 9 9 9 9
15 15 15 15 15 15 14 14 14 14 14 14 14 14 14 14 14 14 14 13 13 13 13 13 13 13 12 12 12 11 11 10 10 9 8 8 8 8 8 8 8 8 8
Wind_Speed
9 15 23 22 20 19 18 17 16 15 15 17 19 21 21 22 22 21 21 20 20 20 20 20 20 20 19 19 19 18 18 18 18 17 17 17 17 17 16 15 15 14 15
13 19 24 22 21 19 18 17 16 15 15 17 19 20 21 22 21 21 21 20 20 20 20 20 19 19 18 17 16 16 16 16 16 16 16 15 15 16 15 15 14 13 14
17 19 23 23 21 20 19 18 17 16 16 17 19 20 21 21 21 21 20 20 20 20 19 19 18 18 16 15 14 14 14 14 14 14 14 13 13 14 14 14 14 14 13
16 19 20 23 22 20 19 18 17 16 16 17 18 20 21 21 20 20 20 19 19 19 18 18 17 16 15 13 13 13 13 13 13 12 12 12 11 13 13 13 13 13 13
13 17 21 23 22 21 19 19 18 17 17 18 18 19 20 20 20 19 19 18 18 18 17 16 15 14 14 13 13 13 13 12 12 12 11 10 10 12 12 12 12 12 12
12 16 21 22 21 20 19 19 18 18 17 18 19 19 20 19 19 18 18 17 17 16 16 15 14 13 13 13 13 12 12 11 11 10 9 8 9 11 11 11 11 11 11
12 15 21 22 21 20 19 19 19 18 18 18 19 19 19 19 18 17 17 16 16 15 14 14 13 12 12 12 12 11 10 9 9 8 7 6 7 9 10 10 10 10 10
13 13 19 21 20 19 19 19 19 19 18 18 18 18 18 18 17 16 15 15 14 14 13 12 11 11 11 11 10 9 8 7 6 5 4 4 5 7 7 8 8 9 9
11 11 13 17 17 18 18 19 18 19 18 17 17 17 17 17 16 15 14 14 13 12 11 10 10 9 9 9 8 7 6 5 4 2 1 1 2 4 5 5 6 7 7
10 11 10 13 14 14 16 18 18 18 18 17 16 17 16 16 15 14 13 12 11 10 9 8 7 7 6 6 6 6 5 4 2 0 1 2 2 0 2 2 3 4 4
12 10 10 10 11 13 13 16 17 18 18 17 16 16 15 13 12 11 10 10 9 8 7 6 5 4 4 4 5 4 3 2 0 2 3 4 4 3 2 1 0 1 2
14 12 10 11 10 11 11 12 13 13 15 14 14 14 12 11 10 9 9 8 8 6 5 3 2 3 3 3 3 3 2 2 2 4 5 6 6 5 5 4 3 2 2
15 13 11 11 10 10 8 10 10 10 11 12 14 13 12 10 8 7 7 6 5 4 3 1 1 1 1 2 3 3 3 3 4 5 7 7 8 8 7 7 6 6 5
14 13 12 11 10 9 9 8 9 9 9 9 12 13 11 7 6 6 5 5 5 4 3 2 1 1 2 3 3 4 5 4 5 7 8 9 9 9 9 9 8 8 8
15 14 13 12 12 10 8 7 8 8 9 11 12 13 12 8 5 6 5 6 5 5 4 3 3 2 3 4 4 4 5 6 7 8 9 10 10 10 11 11 11 10 9
14 15 13 13 12 10 9 7 7 10 11 11 11 13 14 11 8 6 5 6 6 7 6 5 4 3 3 3 4 5 6 7 7 8 10 10 11 11 11 11 11 11 10
15 15 15 15 13 12 10 9 8 10 11 10 11 14 14 13 11 8 5 5 7 9 7 5 4 3 2 2 3 4 5 6 7 9 10 10 11 11 10 10 11 11 9
13 13 14 13 13 12 10 9 7 9 10 10 12 13 14 14 13 10 5 5 8 8 6 3 3 2 2 3 3 3 3 5 7 8 9 10 9 10 10 9 9 9 8
12 13 13 12 13 12 10 8 7 7 8 9 10 11 13 14 14 11 7 6 8 6 4 3 3 3 2 3 3 4 4 4 5 6 6 8 8 8 9 8 7 6 5
10 11 12 12 12 10 8 6 5 5 5 7 8 10 13 13 14 12 7 7 7 4 3 3 3 2 2 2 3 4 4 4 3 3 4 5 5 5 5 5 3 2 1
9 11 13 13 12 10 7 7 6 7 6 5 6 10 12 12 13 10 6 5 5 5 5 5 3 3 2 1 1 3 3 3 2 2 2 2 3 4 3 2 1 1 2
10 11 12 12 11 11 9 8 5 5 4 5 4 6 9 10 11 10 7 6 5 5 5 4 3 2 1 1 1 1 4 4 3 2 3 3 3 5 5 5 4 3 2
8 10 11 11 10 10 10 6 4 3 2 3 5 5 6 8 9 8 7 5 4 5 4 4 4 4 2 1 1 2 2 3 3 2 3 3 4 4 4 5 6 4 3
6 7 8 9 10 9 9 8 8 7 7 7 5 4 4 5 6 8 7 6 5 4 4 4 3 3 3 2 1 2 3 3 2 3 2 2 3 4 4 4 5 6 5
3 4 5 6 6 7 8 9 9 8 6 4 4 5 4 4 4 6 6 5 5 4 4 4 3 3 2 3 3 2 2 2 3 4 4 3 2 2 3 3 3 4 5
2 3 3 5 5 6 8 8 9 9 8 7 7 6 5 3 3 4 5 4 4 4 4 4 3 3 2 2 2 2 2 2 3 3 5 3 3 1 1 2 2 3 4
Wind_Direction
158 155 151 147 141 137 134 132 126 121 121 126 128 128 127 124 121 119 116 114 113 112 111 109 106 102 98 94 89 85 83 80 78 76 74 74 74 73 72 69 65 62 63
147 153 150 147 142 139 137 133 128 124 123 126 129 128 127 125 122 120 118 116 116 115 113 110 107 102 99 96 94 91 87 83 80 76 71 70 72 72 70 68 66 65 64
144 150 148 146 143 141 138 134 131 128 128 126 127 127 126 124 123 121 120 119 118 117 114 110 106 102 99 97 98 97 93 88 83 77 70 65 69 71 70 67 63 62 63
143 146 147 146 144 142 140 138 135 132 132 130 128 126 125 124 124 123 121 120 119 117 115 111 107 103 99 99 102 103 98 92 85 78 70 64 66 71 69 67 64 62 63
139 143 147 145 145 144 143 141 138 135 134 133 130 127 126 125 124 123 122 121 120 119 118 114 109 104 100 100 103 106 103 95 88 81 73 67 67 74 71 67 65 63 62
136 141 147 145 146 146 145 142 140 138 137 135 132 129 128 127 126 125 124 123 123 122 121 117 111 105 101 101 103 106 106 99 93 83 73 66 68 75 73 70 68 64 61
138 141 145 145 147 149 148 145 143 141 141 139 136 133 131 129 129 128 127 126 126 125 123 120 114 107 103 102 103 104 105 103 96 86 73 64 72 75 73 71 69 66 63
142 141 145 147 149 151 151 147 145 144 144 143 140 138 136 134 133 133 132 131 129 128 126 122 116 108 103 101 103 106 107 104 101 91 77 64 74 76 75 72 69 66 62
141 138 141 145 150 152 151 149 147 146 146 146 144 142 140 139 139 138 137 135 133 130 128 124 119 110 102 97 96 101 106 108 108 99 71 43 66 74 77 74 69 66 63
143 142 138 140 146 150 152 151 149 148 148 148 145 142 142 142 143 142 141 138 136 135 132 127 119 108 94 85 81 88 104 110 107 139 279 276 266 74 82 82 74 69 68
154 149 144 142 145 148 151 154 152 151 150 149 146 145 143 143 144 143 144 142 141 141 139 134 121 102 85 71 63 66 85 99 47 293 278 278 271 261 256 232 161 88 83
166 160 154 150 149 150 154 151 151 149 150 149 150 149 148 147 147 148 153 153 152 150 149 141 115 83 65 42 30 32 27 346 296 289 285 282 276 268 261 253 241 238 233
170 167 162 157 154 153 149 151 149 149 150 152 156 156 154 152 151 152 156 163 164 163 159 146 76 46 16 350 342 337 326 311 292 288 288 288 280 273 269 262 252 245 243
170 172 166 161 159 159 156 158 157 158 160 161 165 164 160 157 160 163 171 179 182 184 187 199 227 274 295 297 297 301 303 295 288 287 288 288 281 275 274 273 267 258 251
172 174 171 168 166 162 159 165 168 170 173 173 172 176 174 171 173 178 185 192 200 202 202 210 226 254 281 293 292 287 287 288 288 285 285 287 282 275 272 273 272 269 265
180 178 174 175 172 165 166 172 176 180 180 178 182 186 186 185 183 182 188 197 206 210 212 215 226 239 263 279 285 280 274 280 282 281 281 284 282 277 272 272 273 274 273
184 183 179 179 175 173 173 177 182 186 183 186 190 191 192 193 193 190 189 200 212 212 210 212 223 227 249 261 273 276 272 272 274 277 280 280 280 279 274 272 274 277 276
183 183 181 182 179 180 178 176 180 186 188 191 191 193 197 200 199 192 192 205 209 201 194 189 191 210 240 251 264 271 269 275 276 277 279 278 277 276 277 274 273 274 276
186 183 183 185 182 183 182 176 178 184 191 195 192 193 198 201 199 192 197 203 195 184 184 184 183 190 224 248 260 268 269 267 273 282 282 283 280 276 275 277 273 267 264
193 190 189 190 184 179 175 166 170 184 190 193 194 197 196 198 196 192 194 192 180 168 177 178 185 189 211 238 267 278 275 276 282 289 294 300 298 292 281 273 273 277 268
198 199 199 196 187 175 177 184 188 200 193 195 198 199 196 194 192 189 187 179 174 180 186 179 173 190 218 192 291 310 307 305 319 326 339 351 358 4 16 11 13 56 56
197 201 200 199 190 182 189 191 186 179 189 195 195 199 195 191 188 189 184 184 176 175 175 176 171 168 193 153 159 322 326 336 351 12 22 27 21 32 35 34 41 48 58
198 197 198 197 194 196 193 177 157 149 145 181 197 197 193 187 187 183 179 171 170 174 180 179 172 173 194 190 178 185 232 271 307 328 25 30 25 31 31 33 37 34 41
209 196 194 193 192 194 189 185 180 191 203 205 196 188 171 176 177 174 168 166 167 169 168 166 160 164 170 201 212 220 223 218 257 307 325 11 30 34 26 28 35 34 41
213 201 192 183 185 187 186 188 191 202 206 187 166 166 167 164 163 162 160 155 157 159 153 146 146 155 171 191 199 199 225 234 226 240 278 296 339 24 30 29 40 39 42
192 184 176 174 183 181 184 187 194 200 193 180 181 181 175 158 144 142 134 133 137 141 139 138 134 143 158 192 208 203 209 219 222 228 254 263 264 254 35 35 45 44 47
Height
1502 1507 1511 1514 1517 1519 1520 1522 1523 1525 1526 1528 1530 1532 1534 1537 1539 1541 1543 1544 1546 1547 1548 1549 1550 1551 1552 1552 1553 1553 1554 1554 1554 1554 1554 1554 1554 1554 1554 1553 1553 1553 1553
1500 1506 1510 1513 1516 1518 1520 1522 1524 1525 1527 1529 1531 1533 1535 1538 1540 1542 1544 1545 1547 1548 1550 1551 1552 1553 1554 1555 1555 1556 1556 1556 1556 1556 1556 1556 1556 1556 1556 1556 1555 1555 1555
1500 1505 1509 1513 1516 1518 1520 1522 1524 1526 1528 1530 1532 1534 1537 1539 1541 1543 1545 1547 1548 1550 1551 1553 1554 1555 1556 1557 1557 1558 1558 1558 1559 1559 1559 1559 1558 1558 1558 1558 1557 1557 1556
1500 1505 1509 1513 1516 1518 1520 1523 1525 1527 1529 1531 1533 1536 1538 1540 1542 1545 1546 1548 1550 1552 1553 1555 1556 1557 1558 1559 1559 1560 1560 1560 1561 1561 1561 1561 1560 1560 1560 1559 1559 1558 1558
1501 1505 1509 1513 1516 1518 1521 1523 1525 1527 1529 1532 1534 1537 1539 1541 1544 1546 1548 1550 1552 1553 1555 1556 1558 1559 1560 1561 1561 1562 1562 1562 1563 1563 1563 1562 1562 1562 1561 1561 1560 1560 1559
1501 1506 1509 1513 1516 1519 1521 1524 1526 1528 1530 1532 1535 1538 1540 1542 1545 1547 1549 1551 1553 1555 1557 1558 1559 1561 1562 1562 1563 1564 1564 1564 1564 1564 1564 1564 1564 1563 1563 1562 1562 1561 1560
1502 1506 1510 1513 1516 1519 1522 1524 1527 1529 1531 1533 1536 1538 1541 1543 1546 1549 1551 1553 1555 1556 1558 1559 1561 1562 1563 1564 1564 1565 1565 1566 1566 1566 1566 1565 1565 1565 1564 1564 1563 1562 1561
1503 1507 1510 1514 1517 1519 1522 1525 1527 1529 1532 1534 1536 1539 1542 1544 1547 1550 1552 1554 1556 1558 1559 1561 1562 1563 1564 1565 1565 1566 1566 1567 1567 1567 1567 1566 1566 1566 1565 1564 1564 1563 1562
1504 1507 1510 1514 1517 1520 1523 1525 1528 1530 1532 1535 1537 1540 1543 1545 1548 1551 1553 1555 1557 1559 1560 1562 1563 1564 1565 1566 1566 1567 1567 1567 1567 1567 1567 1567 1566 1566 1566 1565 1564 1563 1563
1505 1507 1510 1514 1517 1520 1523 1526 1528 1531 1533 1536 1538 1541 1544 1547 1549 1552 1554 1556 1558 1560 1561 1562 1563 1564 1565 1566 1566 1567 1567 1567 1568 1568 1567 1567 1567 1566 1566 1565 1564 1564 1563
1504 1507 1510 1513 1517 1520 1523 1526 1528 1531 1534 1536 1539 1542 1545 1547 1549 1552 1554 1556 1558 1560 1561 1562 1563 1564 1565 1565 1566 1567 1567 1567 1567 1567 1567 1567 1566 1566 1565 1565 1564 1563 1562
1502 1506 1509 1513 1516 1519 1522 1525 1528 1531 1534 1537 1539 1542 1545 1548 1550 1552 1554 1556 1558 1559 1561 1562 1563 1564 1565 1565 1566 1566 1566 1567 1567 1567 1567 1566 1566 1565 1565 1564 1564 1563 1562
1500 1504 1508 1512 1515 1518 1522 1525 1528 1531 1534 1536 1539 1542 1545 1547 1550 1552 1554 1556 1557 1559 1560 1561 1562 1563 1564 1564 1565 1565 1566 1566 1566 1566 1566 1565 1565 1564 1564 1563 1563 1562 1561
1498 1502 1506 1510 1514 1518 1521 1524 1527 1530 1533 1536 1539 1542 1544 1547 1549 1551 1553 1555 1556 1558 1559 1560 1561 1562 1563 1563 1564 1564 1565 1565 1565 1564 1564 1564 1563 1563 1562 1562 1561 1560 1560
1495 1500 1505 1509 1513 1516 1520 1523 1526 1529 1532 1535 1538 1541 1543 1546 1548 1550 1552 1554 1555 1556 1558 1559 1560 1561 1561 1562 1563 1563 1563 1563 1563 1562 1562 1562 1561 1561 1560 1560 1559 1559 1558
1492 1497 1502 1507 1511 1515 1518 1521 1525 1528 1531 1534 1537 1540 1542 1545 1547 1549 1550 1552 1554 1555 1556 1557 1558 1559 1560 1560 1561 1561 1561 1561 1561 1560 1560 1559 1559 1558 1558 1557 1557 1556 1556
1490 1495 1499 1504 1509 1513 1517 1520 1523 1526 1529 1532 1535 1538 1540 1543 1545 1547 1548 1550 1552 1553 1554 1555 1556 1557 1558 1558 1559 1559 1559 1558 1558 1558 1557 1556 1556 1555 1554 1554 1553 1553 1553
1488 1493 1497 1502 1506 1510 1514 1518 1522 1525 1527 1530 1533 1536 1538 1541 1543 1545 1546 1548 1549 1551 1552 1553 1554 1555 1555 1556 1556 1556 1556 1555 1555 1554 1554 1553 1552 1551 1551 1550 1550 1550 1549
1486 1491 1495 1499 1504 1508 1512 1516 1520 1523 1525 1528 1531 1533 1536 1538 1540 1542 1544 1546 1547 1548 1549 1551 1552 1552 1553 1553 1553 1553 1553 1552 1552 1551 1550 1549 1548 1547 1547 1547 1546 1546 1546
1484 1488 1492 1497 1502 1506 1510 1513 1517 1520 1523 1526 1528 1531 1533 1535 1537 1539 1541 1543 1544 1545 1547 1548 1549 1550 1550 1550 1550 1550 1549 1549 1548 1547 1546 1545 1544 1544 1543 1543 1543 1543 1543
1482 1486 1490 1495 1498 1502 1507 1510 1513 1516 1519 1523 1525 1528 1530 1532 1534 1536 1538 1540 1541 1542 1544 1545 1546 1547 1547 1547 1547 1546 1545 1544 1543 1543 1542 1542 1542 1541 1541 1540 1540 1540 1540
1479 1482 1487 1492 1495 1499 1503 1506 1510 1513 1516 1519 1521 1524 1526 1528 1531 1532 1534 1536 1538 1540 1541 1542 1543 1544 1544 1544 1544 1543 1541 1541 1539 1539 1539 1539 1538 1538 1538 1538 1537 1537 1537
1477 1480 1483 1487 1491 1494 1499 1503 1506 1509 1512 1514 1517 1519 1522 1524 1527 1529 1531 1533 1535 1536 1538 1539 1540 1540 1541 1541 1541 1541 1540 1537 1536 1535 1535 1535 1535 1534 1534 1534 1534 1534 1534
1474 1478 1481 1484 1487 1491 1495 1498 1501 1504 1507 1510 1513 1516 1518 1520 1522 1524 1527 1529 1531 1533 1534 1535 1536 1536 1537 1537 1537 1537 1537 1536 1535 1532 1531 1531 1531 1531 1531 1530 1530 1530 1530
1472 1475 1479 1482 1484 1488 1491 1494 1497 1500 1504 1506 1509 1511 1514 1516 1518 1520 1523 1525 1527 1528 1530 1531 1532 1532 1532 1532 1532 1532 1532 1531 1531 1530 1527 1527 1527 1527 1526 1526 1526 1526 1525
1470 1473 1476 1480 1482 1485 1488 1491 1494 1497 1500 1502 1504 1506 1509 1512 1514 1516 1519 1521 1522 1524 1525 1526 1527 1527 1527 1527 1527 1527 1527 1527 1526 1525 1524 1522 1522 1522 1522 1521 1521 1521 1521